{"data":{"norad_id":46479,"epoch":"2026-05-25T05:29:53.700000Z","epoch_age_seconds":54960,"freshness":"FRESH","line1":"1 46479U 20067B   26145.22909375  .00000030  00000+0  11455-4 0  9992","line2":"2 46479  97.8885 225.1469 0001127  80.7601 279.3737 14.76521136304875","mean_motion":14.76521136,"eccentricity":0.0001127,"inclination_deg":97.8885,"raan_deg":225.1469,"arg_perigee_deg":80.7601,"mean_anomaly_deg":279.3737,"bstar":1.1455e-5,"rev_number":30487,"period_min":97.526541604481,"perigee_km":639.53579189853,"apogee_km":641.11775363291,"semimajor_km":7018.4637727657,"source":"CELESTRAK","updated_at":"2026-05-25T13:37:56.323205Z"}}